User: anonymous   Login
Location: Unspecified
(0.0000°N, 0.0000°E)
Time: 08:03:12
(UTC+00:00)
Language:

RAINCUBE - Orbit

View from above orbital plane
View from above orbital plane
View from above satellite
View from above satellite

Ground track
Ground track

The orbit data is extracted from the following two-line orbital elements,

1 43548U 98067NW  20223.68406739  .00037655  00000-0  22804-3 0  9991
2 43548  51.6311  10.5364 0004066 299.8527  60.2069 15.77174936118812
Epoch (UTC): 10 August 2020 16:25:03
Eccentricity: 0.0004066
inclination: 51.6311°
perigee height: 336 km
apogee height: 341 km
right ascension of ascending node: 10.5364°
argument of perigee: 299.8527°
revolutions per day: 15.77174936
mean anomaly at epoch: 60.2069°
orbit number at epoch: 11881

The dashed part of the orbit path shows where the satellite is in the earth's shadow,  

DLR